Year,Month,Day,Hour,Minute,Value (Times are PST for temperature in C)
2020,12,04,09,26,6.00
2020,12,04,09,27,6.00
2020,12,04,09,28,6.10
2020,12,04,09,29,6.20
2020,12,04,09,30,6.30
2020,12,04,09,31,6.30
2020,12,04,09,32,6.30
2020,12,04,09,33,6.30
2020,12,04,09,34,6.40
2020,12,04,09,35,6.40
2020,12,04,09,36,6.40
2020,12,04,09,37,6.40
2020,12,04,09,38,6.40
2020,12,04,09,39,6.50
2020,12,04,09,40,6.50
2020,12,04,09,41,6.60
2020,12,04,09,42,6.60
2020,12,04,09,43,6.70
2020,12,04,09,44,6.80
2020,12,04,09,45,6.80
2020,12,04,09,46,6.90
2020,12,04,09,47,7.00
2020,12,04,09,48,7.10
2020,12,04,09,49,7.20
2020,12,04,09,50,7.20
2020,12,04,09,51,7.30
2020,12,04,09,52,7.30
2020,12,04,09,53,7.30
2020,12,04,09,54,7.30
2020,12,04,09,55,7.30
2020,12,04,09,56,7.30
2020,12,04,09,57,7.30
2020,12,04,09,58,7.30
2020,12,04,09,59,7.30
2020,12,04,10,00,7.30
2020,12,04,10,01,7.30
2020,12,04,10,02,7.30
2020,12,04,10,03,7.30
2020,12,04,10,04,7.30
2020,12,04,10,05,7.40
2020,12,04,10,06,7.40
2020,12,04,10,07,7.40
2020,12,04,10,08,7.40
2020,12,04,10,09,7.50
2020,12,04,10,10,7.60
2020,12,04,10,11,7.60
2020,12,04,10,12,7.70
2020,12,04,10,13,7.70
2020,12,04,10,14,7.80
2020,12,04,10,15,7.80
2020,12,04,10,16,7.90
2020,12,04,10,17,7.90
2020,12,04,10,18,8.00
2020,12,04,10,19,8.10
2020,12,04,10,20,8.10
2020,12,04,10,21,8.20
2020,12,04,10,22,8.20
2020,12,04,10,23,8.30
2020,12,04,10,24,8.30
2020,12,04,10,25,8.30
2020,12,04,10,26,8.30
2020,12,04,10,27,8.40
2020,12,04,10,28,8.40
2020,12,04,10,29,8.50
2020,12,04,10,30,8.50
2020,12,04,10,31,8.50
2020,12,04,10,32,8.60
2020,12,04,10,33,8.60
2020,12,04,10,34,8.60
2020,12,04,10,35,8.60
2020,12,04,10,36,8.60
2020,12,04,10,37,8.70
2020,12,04,10,38,8.70
2020,12,04,10,39,8.70
2020,12,04,10,40,8.70
2020,12,04,10,41,8.70
2020,12,04,10,42,8.70
2020,12,04,10,43,8.70
2020,12,04,10,44,8.70
2020,12,04,10,45,8.70
2020,12,04,10,46,8.70
2020,12,04,10,47,8.70
2020,12,04,10,48,8.70
2020,12,04,10,49,8.80
2020,12,04,10,50,8.80
2020,12,04,10,51,8.80
2020,12,04,10,52,8.80
2020,12,04,10,53,8.90
2020,12,04,10,54,8.90
2020,12,04,10,55,8.90
2020,12,04,10,56,9.00
2020,12,04,10,57,9.00
2020,12,04,10,58,9.10
2020,12,04,10,59,9.10
2020,12,04,11,00,9.10
2020,12,04,11,01,9.10
2020,12,04,11,02,9.10
2020,12,04,11,03,9.10
2020,12,04,11,04,9.10
2020,12,04,11,05,9.10
2020,12,04,11,06,9.10
2020,12,04,11,07,9.10
2020,12,04,11,08,9.20
2020,12,04,11,09,9.20
2020,12,04,11,10,9.20
2020,12,04,11,11,9.30
2020,12,04,11,12,9.30
2020,12,04,11,13,9.30
2020,12,04,11,14,9.40
2020,12,04,11,15,9.50
2020,12,04,11,16,9.60
2020,12,04,11,17,9.60
2020,12,04,11,18,9.60
2020,12,04,11,19,9.70
2020,12,04,11,20,9.80
2020,12,04,11,21,9.80
2020,12,04,11,22,9.80
2020,12,04,11,23,9.80
2020,12,04,11,24,9.80
2020,12,04,11,25,9.80
2020,12,04,11,26,9.80
2020,12,04,11,27,9.80
2020,12,04,11,28,9.90
2020,12,04,11,29,10.00
2020,12,04,11,30,10.10
2020,12,04,11,31,10.10
2020,12,04,11,32,10.20
2020,12,04,11,33,10.20
2020,12,04,11,34,10.30
2020,12,04,11,35,10.30
2020,12,04,11,36,10.30
2020,12,04,11,37,10.30
2020,12,04,11,38,10.30
2020,12,04,11,39,10.40
2020,12,04,11,40,10.40
2020,12,04,11,41,10.40
2020,12,04,11,42,10.30
2020,12,04,11,43,10.30
2020,12,04,11,44,10.30
2020,12,04,11,45,10.30
2020,12,04,11,46,10.20
2020,12,04,11,47,10.20
2020,12,04,11,48,10.10
2020,12,04,11,49,10.00
2020,12,04,11,50,10.00
2020,12,04,11,51,9.90
2020,12,04,11,52,9.80
2020,12,04,11,53,9.80
2020,12,04,11,54,9.70
2020,12,04,11,55,9.70
2020,12,04,11,56,9.60
2020,12,04,11,57,9.60
2020,12,04,11,58,9.50
2020,12,04,11,59,9.40
2020,12,04,12,00,9.40
2020,12,04,12,01,9.40
2020,12,04,12,02,9.40
2020,12,04,12,03,9.40
2020,12,04,12,04,9.30
2020,12,04,12,05,9.30
2020,12,04,12,06,9.40
2020,12,04,12,07,9.40
2020,12,04,12,08,9.40
2020,12,04,12,09,9.40
2020,12,04,12,10,9.30
2020,12,04,12,11,9.30
2020,12,04,12,12,9.30
2020,12,04,12,13,9.30
2020,12,04,12,14,9.30
2020,12,04,12,15,9.30
2020,12,04,12,16,9.30
2020,12,04,12,17,9.30
2020,12,04,12,18,9.30
2020,12,04,12,19,9.30
2020,12,04,12,20,9.30
2020,12,04,12,21,9.30
2020,12,04,12,22,9.30
2020,12,04,12,23,9.30
2020,12,04,12,24,9.30
2020,12,04,12,25,9.20
2020,12,04,12,26,9.10
2020,12,04,12,27,9.00
2020,12,04,12,28,9.00
2020,12,04,12,29,8.90
2020,12,04,12,30,8.90
2020,12,04,12,31,9.00
2020,12,04,12,32,9.00
2020,12,04,12,33,9.00
2020,12,04,12,34,9.00
2020,12,04,12,35,9.00
2020,12,04,12,36,9.00
2020,12,04,12,37,9.00
2020,12,04,12,38,9.00
2020,12,04,12,39,9.10
2020,12,04,12,40,9.10
2020,12,04,12,41,9.10
2020,12,04,12,42,9.10
2020,12,04,12,43,9.10
2020,12,04,12,44,9.10
2020,12,04,12,45,9.10
2020,12,04,12,46,9.10
2020,12,04,12,47,9.10
2020,12,04,12,48,9.00
2020,12,04,12,49,9.10
2020,12,04,12,50,9.00
2020,12,04,12,51,9.00
2020,12,04,12,52,9.10
2020,12,04,12,53,9.10
2020,12,04,12,54,9.10
2020,12,04,12,55,9.20
2020,12,04,12,56,9.20
2020,12,04,12,57,9.20
2020,12,04,12,58,9.20
2020,12,04,12,59,9.30
2020,12,04,13,00,9.30
2020,12,04,13,01,9.30
2020,12,04,13,02,9.30
2020,12,04,13,03,9.30
2020,12,04,13,04,9.20
2020,12,04,13,05,9.20
2020,12,04,13,06,9.20
2020,12,04,13,07,9.20
2020,12,04,13,08,9.20
2020,12,04,13,09,9.20
2020,12,04,13,10,9.20
2020,12,04,13,11,9.20
2020,12,04,13,12,9.30
2020,12,04,13,13,9.30
2020,12,04,13,14,9.30
2020,12,04,13,15,9.30
2020,12,04,13,16,9.30
2020,12,04,13,17,9.30
2020,12,04,13,18,9.30
2020,12,04,13,19,9.30
2020,12,04,13,20,9.30
2020,12,04,13,21,9.30
2020,12,04,13,22,9.30
2020,12,04,13,23,9.30
2020,12,04,13,24,9.30
2020,12,04,13,25,9.30
2020,12,04,13,26,9.20
2020,12,04,13,27,9.20
2020,12,04,13,28,9.20
2020,12,04,13,29,9.20
2020,12,04,13,30,9.20
2020,12,04,13,31,9.30
2020,12,04,13,32,9.30
2020,12,04,13,33,9.20
2020,12,04,13,34,9.20
2020,12,04,13,35,9.30
2020,12,04,13,36,9.30
2020,12,04,13,37,9.30
2020,12,04,13,38,9.30
2020,12,04,13,39,9.30
2020,12,04,13,40,9.20
2020,12,04,13,41,9.20
2020,12,04,13,42,9.20
2020,12,04,13,43,9.30
2020,12,04,13,44,9.30
2020,12,04,13,45,9.30
2020,12,04,13,46,9.20
2020,12,04,13,47,9.20
2020,12,04,13,48,9.20
2020,12,04,13,49,9.20
2020,12,04,13,50,9.20
2020,12,04,13,51,9.20
2020,12,04,13,52,9.20
2020,12,04,13,53,9.20
2020,12,04,13,54,9.20
2020,12,04,13,55,9.20
2020,12,04,13,56,9.20
2020,12,04,13,57,9.20
2020,12,04,13,58,9.20
2020,12,04,13,59,9.30
2020,12,04,14,00,9.20
2020,12,04,14,01,9.20
2020,12,04,14,02,9.20
2020,12,04,14,03,9.20
2020,12,04,14,04,9.20
2020,12,04,14,05,9.20
2020,12,04,14,06,9.20
2020,12,04,14,07,9.20
2020,12,04,14,08,9.20
2020,12,04,14,09,9.20
2020,12,04,14,10,9.20
2020,12,04,14,11,9.20
2020,12,04,14,12,9.20
2020,12,04,14,13,9.20
2020,12,04,14,14,9.20
2020,12,04,14,15,9.20
2020,12,04,14,16,9.20
2020,12,04,14,17,9.20
2020,12,04,14,18,9.20
2020,12,04,14,19,9.30
2020,12,04,14,20,9.30
2020,12,04,14,21,9.30
2020,12,04,14,22,9.30
2020,12,04,14,23,9.30
2020,12,04,14,24,9.40
2020,12,04,14,25,9.40
2020,12,04,14,26,9.40
2020,12,04,14,27,9.40
2020,12,04,14,28,9.40
2020,12,04,14,29,9.40
2020,12,04,14,30,9.40
2020,12,04,14,31,9.40
2020,12,04,14,32,9.40
2020,12,04,14,33,9.40
2020,12,04,14,34,9.40
2020,12,04,14,35,9.40
2020,12,04,14,36,9.50
2020,12,04,14,37,9.50
2020,12,04,14,38,9.50
2020,12,04,14,39,9.60
2020,12,04,14,40,9.60
2020,12,04,14,41,9.50
2020,12,04,14,42,9.50
2020,12,04,14,43,9.50
2020,12,04,14,44,9.50
2020,12,04,14,45,9.50
2020,12,04,14,46,9.50
2020,12,04,14,47,9.50
2020,12,04,14,48,9.50
2020,12,04,14,49,9.50
2020,12,04,14,50,9.50
2020,12,04,14,51,9.50
2020,12,04,14,52,9.50
2020,12,04,14,53,9.50
2020,12,04,14,54,9.50
2020,12,04,14,55,9.50
2020,12,04,14,56,9.50
2020,12,04,14,57,9.50
2020,12,04,14,58,9.50
2020,12,04,14,59,9.50
2020,12,04,15,00,9.50
2020,12,04,15,01,9.60
2020,12,04,15,02,9.60
2020,12,04,15,03,9.60
2020,12,04,15,04,9.60
2020,12,04,15,05,9.60
2020,12,04,15,06,9.60
2020,12,04,15,07,9.60
2020,12,04,15,08,9.60
2020,12,04,15,09,9.60
2020,12,04,15,10,9.60
2020,12,04,15,11,9.60
2020,12,04,15,12,9.60
2020,12,04,15,13,9.60
2020,12,04,15,14,9.60
2020,12,04,15,15,9.60
2020,12,04,15,16,9.60
2020,12,04,15,17,9.60
2020,12,04,15,18,9.60
2020,12,04,15,19,9.60
2020,12,04,15,20,9.60
2020,12,04,15,21,9.60
2020,12,04,15,22,9.60
2020,12,04,15,23,9.60
2020,12,04,15,24,9.60
2020,12,04,15,25,9.60
2020,12,04,15,26,9.60
2020,12,04,15,27,9.60
2020,12,04,15,28,9.60
2020,12,04,15,29,9.60
2020,12,04,15,30,9.70
2020,12,04,15,31,9.70
2020,12,04,15,32,9.70
2020,12,04,15,33,9.70
2020,12,04,15,34,9.70
2020,12,04,15,35,9.80
2020,12,04,15,36,9.80
2020,12,04,15,37,9.80
2020,12,04,15,38,9.80
2020,12,04,15,39,9.80
2020,12,04,15,40,9.90
2020,12,04,15,41,9.90
2020,12,04,15,42,9.90
2020,12,04,15,43,9.90
2020,12,04,15,44,9.90
2020,12,04,15,45,9.90
2020,12,04,15,46,9.90
2020,12,04,15,47,9.80
2020,12,04,15,48,9.80
2020,12,04,15,49,9.70
2020,12,04,15,50,9.70
2020,12,04,15,51,9.70
2020,12,04,15,52,9.60
2020,12,04,15,53,9.60
2020,12,04,15,54,9.60
2020,12,04,15,55,9.60
2020,12,04,15,56,9.50
2020,12,04,15,57,9.50
2020,12,04,15,58,9.40
2020,12,04,15,59,9.40
2020,12,04,16,00,9.40
2020,12,04,16,01,9.30
2020,12,04,16,02,9.30
2020,12,04,16,03,9.30
2020,12,04,16,04,9.10
2020,12,04,16,05,8.90
2020,12,04,16,06,8.60
2020,12,04,16,07,8.70
2020,12,04,16,08,9.10
2020,12,04,16,09,8.70
2020,12,04,16,10,8.70
2020,12,04,16,11,8.70
2020,12,04,16,12,8.70
2020,12,04,16,13,8.70
2020,12,04,16,14,8.70
2020,12,04,16,15,8.70
2020,12,04,16,16,8.70
2020,12,04,16,17,8.70
2020,12,04,16,18,8.70
2020,12,04,16,19,8.70
2020,12,04,16,20,8.70
